OBJECT AU, 60510

Orbit data source: Space-Track

You're viewing an uncataloged RSO

Recently launched and/or uncataloged RSOs may have evolving metadata. Metadata may include the following, but is not limited to: Owner, Manufacturer, Bus, Motor, and Mission.

OBJECT AU, 60510 is a satellite in SSO that was launched on Fri, 16 Aug 2024 UTC via an FALCON 9 launch vehicle from the Air Force Western Test Range (AFWTR). Unknown objects in Earth's orbit typically refer to objects detected orbiting the Earth but have not yet been identified or cataloged. These objects could be anything from previously untracked satellites, spent rocket stages, debris from satellite collisions, or even natural meteoroids temporarily captured by Earth's gravity.

Loading next visibility...
Identifier
60510, 2024-149AU
Orbit
SSO
Country
Flag of TBDTBD
Related business
None
Manufacturer
Unknown
Mission
Operational Civil Communications
Bus & Motor
Unknown
Mass
Unknown
Launch date (UTC)
2024-08-16 (2 years ago)
Launch vehicle
FALCON 9
Launch site
Air Force Western Test Range (AFWTR)
Object type
Unknown
Shape & HBR
Box, 0.2 m
Radar Cross Section
0.045 m², Medium (>0.1 m² and < 1m²)

Expand to show TLE details & history
Last TLE update: 17 hours ago

TLE from 17 hours ago
0 OBJECT AU
1 60510U 24149AU  26264.78102083  .00011568  00000-0  26699-3 0  9997
2 60510  97.3676 349.4171 0002239 312.1844  47.9213 15.42704725117192
Epoch: 2026-09-21T18:44Z
TLE epoch observation values (Epoch: 2026-09-21T18:44:40.199Z)
Latitude
-0.00005°
Longitude
67.59368°
Altitude
440.23 km
Speed
7.648 km/s
True Right ascension
23h 17m 40s
True Declination
0° 00' 00"
Sunlit
Object was in full shadow at epoch
Visualization orbit readout
Latitude
Unknown
Longitude
Unknown
Altitude
Unknown
Speed
Unknown
Apparent Right ascension
Unknown
Apparent Declination
Unknown
Sunlit
N/A
Visualization observer readout
Local Sidereal Time
04:32:36
Azimuth
Unknown
Elevation
Unknown
Doppler factor
Unknown
Orbital elements
Apogee altitude
436.59 km
Perigee altitude
433.539 km
Semi-major axis
6,813.202 km
Eccentricity
0.00022
Inclination
97.3676°
RAAN
349.4171°
Arg. of periapsis
312.1844°
True anomaly
47.94035°
Mean anomaly
47.9213°
Eccentric anomaly
47.93082°
Mean motion
3.85937 °/min
Orbital period
93.28 mins
BSTAR
0.00026699
Loading maneuver chart data...
Computing Atmospheric mass density...
Loading historical data...
Loading historical data...
Loading historical data...
Loading historical data...
Loading historical data...
Loading historical data...
Loading historical data...

Documentation

Showing up to 5 results
|